Location: Augsburg
(48.3836°N, 10.8929°E)
Time: 23:14:24
(UTC+01:00)

ISS - Pass Details

Date: 01 December 2021
Orbit: 413 x 422 km, 51.6° (Epoch: 24 January)

Event Time Altitude Azimuth Distance (km) Brightness Sun altitude
Rises 16:58:49 0° 276° (W) 2,385 1.2 -5.8°
Reaches altitude 10° 17:00:59 10° 283° (WNW) 1,518 -0.1 -6.2°
Maximum altitude 17:04:17 46° 358° (N) 581 -3.2 -6.7°
Drops below altitude 10° 17:07:35 10° 74° (ENE) 1,513 -1.6 -7.2°
Enters shadow 17:07:45 - 74° (ENE) 1,577 -1.5 -7.2°
